DW4221 Weather Reports


Display with metric or nautical units.
time (UTC)temp
F
wind
direction
speed
MPH
gust
MPH
rain 1hr
in
rain 24hr
in
rain mn
in
humidity
%
barometer
mb
20260904223057 66 134 0.0 3.0 0.00 1.19 0.54 92 1017.8
20260904221553 66 75 1.0 3.0 0.00 1.19 0.54 91 1017.7
20260904220053 66 0 1.0 4.0 0.00 1.19 0.54 91 1017.6
20260904214607 67 0 0.0 4.0 0.00 1.19 0.54 91 1017.5
20260904213108 67 0 1.0 4.0 0.00 1.19 0.54 90 1017.4
20260904211603 67 88 1.0 4.0 0.00 1.19 0.54 90 1017.3
20260904210104 67 0 1.0 6.0 0.00 1.19 0.54 90 1017.3
20260904204601 68 60 1.0 4.0 0.00 1.19 0.54 89 1017.2
20260904203057 67 0 1.0 3.0 0.00 1.19 0.54 90 1017.1
20260904201633 67 0 2.0 5.0 0.00 1.19 0.54 89 1017.1
20260904200107 67 0 0.0 4.0 0.00 1.19 0.54 90 1017.1
20260904194603 67 123 1.0 4.0 0.00 1.19 0.54 90 1016.8
20260904193056 67 24 0.0 4.0 0.01 1.19 0.54 90 1016.9
20260904191603 67 85 0.0 4.0 0.01 1.19 0.54 90 1016.8
20260904184553 66 83 1.0 4.0 0.01 1.19 0.54 92 1016.8
20260904183117 66 137 1.0 5.0 0.00 1.17 0.52 92 1016.8
20260904181604 65 104 1.0 5.0 0.00 1.17 0.52 92 1016.8
20260904180100 65 119 1.0 4.0 0.00 1.17 0.52 93 1016.8
20260904174605 65 106 1.0 3.0 0.00 1.17 0.52 93 1016.8
20260904173103 65 143 2.0 4.0 0.00 1.17 0.52 92 1016.7
20260904171615 64 53 1.0 4.0 0.00 1.17 0.52 94 1016.8
20260904170057 64 97 1.0 6.0 0.00 1.17 0.52 94 1016.7
20260904164634 63 0 0.0 2.0 0.00 1.17 0.52 96 1016.6
20260904163101 63 0 0.0 3.0 0.00 1.17 0.52 97 1016.7
20260904161559 63 67 0.0 4.0 0.00 1.17 0.52 97 1016.6
20260904160057 62 34 0.0 3.0 0.00 1.17 0.52 96 1016.7
20260904154605 62 352 0.0 5.0 0.00 1.17 0.52 96 1016.5
20260904153113 62 0 1.0 4.0 0.00 1.17 0.52 96 1016.2
20260904151601 62 61 1.0 4.0 0.00 1.17 0.52 97 1016.0
20260904150057 61 46 0.0 4.0 0.00 1.17 0.52 97 1015.8
20260904144604 61 62 0.0 3.0 0.00 1.17 0.52 98 1015.8
20260904143103 61 59 0.0 5.0 0.00 1.17 0.52 99 1015.8
20260904141603 60 0 1.0 5.0 0.00 1.17 0.52 99 1015.4
20260904134604 60 0 2.0 4.0 0.00 1.17 0.52 99 1015.3
20260904133106 59 0 1.0 8.0 0.00 1.17 0.52 99 1015.1
20260904131612 59 29 1.0 4.0 0.00 1.17 0.52 99 1015.1
20260904130100 59 0 0.0 5.0 0.00 1.17 0.52 99 1015.1
20260904124607 59 124 2.0 6.0 0.00 1.17 0.52 99 1014.9
20260904123105 59 57 1.0 7.0 0.00 1.17 0.52 99 1014.9
20260904121606 58 63 1.0 6.0 0.00 1.17 0.52 99 1014.6
20260904120108 58 0 1.0 4.0 0.00 1.17 0.52 99 1014.6
20260904114608 58 38 0.0 3.0 0.00 1.17 0.52 98 1014.4
20260904113106 58 46 1.0 4.0 0.00 1.17 0.52 98 1014.1
20260904111606 58 44 1.0 4.0 0.00 1.17 0.52 98 1013.9
20260904104559 58 0 0.0 6.0 0.00 1.17 0.52 98 1013.6
20260904103057 58 156 1.0 5.0 0.00 1.17 0.52 98 1013.4
20260904101611 57 126 1.0 6.0 0.00 1.17 0.52 98 1013.3
20260904100110 57 60 1.0 4.0 0.00 1.17 0.52 98 1013.4
20260904094607 57 0 0.0 3.0 0.00 1.17 0.52 98 1013.6
20260904093118 57 0 0.0 1.0 0.00 1.17 0.52 97 1013.6
20260904091615 57 0 0.0 2.0 0.00 1.17 0.52 97 1013.4
20260904090106 57 0 0.0 0.0 0.00 1.17 0.52 97 1013.2
20260904084606 57 0 0.0 0.0 0.00 1.17 0.52 97 1013.2
20260904083105 58 83 0.0 1.0 0.00 1.17 0.52 97 1013.0
20260904081555 58 0 0.0 3.0 0.00 1.17 0.52 97 1012.8
20260904080053 58 153 0.0 10.0 0.00 1.17 0.52 97 1012.4
20260904074604 58 101 3.0 9.0 0.04 1.17 0.52 97 1012.4
20260904073124 58 110 6.0 16.0 0.17 1.17 0.52 97 1012.6
20260904071606 58 101 2.0 6.0 0.42 1.17 0.52 97 1013.4
20260904070106 58 166 1.0 10.0 0.50 1.17 0.52 97 1014.2
20260904064604 58 130 2.0 6.0 0.47 1.14 0.49 97 1014.8
20260904063110 59 52 2.0 8.0 0.34 1.00 0.35 97 1015.1
20260904061554 59 11 3.0 11.0 0.08 0.74 0.09 96 1014.8
20260904060125 59 87 3.0 7.0 0.03 0.68 0.03 97 1014.1
20260904054618 60 0 0.0 6.0 0.02 0.67 0.02 97 1014.2
20260904053101 60 95 1.0 3.0 0.01 0.66 0.01 98 1014.0
20260904051555 60 96 0.0 4.0 0.01 0.66 0.01 97 1014.0
20260904050050 60 99 0.0 3.0 0.00 0.65 0.00 97 1014.4
20260904044556 60 0 0.0 4.0 0.00 0.65 0.65 97 1014.3
20260904043057 60 102 0.0 3.0 0.00 0.65 0.65 97 1014.4
20260904041605 60 0 0.0 3.0 0.00 0.65 0.65 97 1013.9
20260904040057 60 104 1.0 6.0 0.00 0.65 0.65 97 1013.8
20260904034551 60 111 0.0 4.0 0.00 0.65 0.65 97 1013.9
20260904033102 60 128 3.0 9.0 0.00 0.65 0.65 97 1013.3
20260904031607 60 0 0.0 3.0 0.00 0.65 0.65 97 1014.4
20260904030104 60 119 1.0 4.0 0.00 0.65 0.65 96 1014.9
20260904024604 60 0 0.0 7.0 0.04 0.65 0.65 96 1014.5
20260904023102 60 97 2.0 8.0 0.12 0.65 0.65 96 1014.8
20260904021608 60 0 0.0 6.0 0.54 0.65 0.65 95 1014.8
20260904020106 61 41 1.0 5.0 0.65 0.65 0.65 95 1015.0
20260904014620 61 127 0.0 2.0 0.61 0.61 0.61 93 1016.0
20260904013112 62 165 1.0 4.0 0.52 0.52 0.52 90 1015.8
20260904011606 66 237 2.0 13.0 0.10 0.10 0.10 82 1016.6
20260904010115 67 153 1.0 7.0 0.00 0.00 0.00 70 1014.6
20260904004558 68 197 2.0 9.0 0.00 0.00 0.00 70 1014.0
20260904003133 68 114 2.0 8.0 0.00 0.00 0.00 69 1013.7
20260904001602 69 115 2.0 8.0 0.00 0.00 0.00 69 1013.8
20260904000103 69 98 3.0 9.0 0.00 0.00 0.00 68 1013.5
20260903234557 70 0 2.0 10.0 0.00 0.00 0.00 68 1013.5
20260903233100 71 117 6.0 15.0 0.00 0.00 0.00 66 1013.2
20260903231611 72 123 2.0 11.0 0.00 0.00 0.00 66 1012.9
20260903230106 72 64 1.0 10.0 0.00 0.00 0.00 65 1012.8
20260903224600 73 72 3.0 10.0 0.00 0.00 0.00 64 1012.9